Regional Weather Roundup
Issued by NWS

Home | Current Version | Previous Version | Text Only | Print | Product List | Glossary Off
Versions: 1 2 3 4 5 6 7 8 9 10 11 12 13 14 15 16 17 18 19 20 21 22 23 24 25 26 27 28 29 30 31 32 33 34 35 36 37 38 39 40 41 42 43 44 45 46 47 48 49 50

073
ASUS44 KJAN 230710
RWRMS

MISSISSIPPI HOURLY WEATHER ROUNDUP
NATIONAL WEATHER SERVICE JACKSON MS
200 AM CDT SAT AUG 23 2014

NOTE: "FAIR: INDICATES FEW OR NO CLOUDS BELOW 12,000 FEET WITH NO
SIGNIFICANT WEATHER AND/OR OBSTRUCTIONS TO VISIBILITY.

MSZ001>002-007>008-010>013-018>021-025>028-034>036-230800-
NORTHWEST MISSISSIPPI

CITY           SKY/WX    TMP DP  RH WIND       PRES   REMARKS
CLARKSDALE     FAIR      75  75 100 CALM      30.00S
CLEVELAND      FAIR      74  73  95 S3        30.00S
GREENWOOD      CLEAR     73  71  93 CALM      30.00F
GREENVILLE     CLEAR     75  71  87 CALM      29.99F
GRENADA        FAIR      70  70 100 CALM      30.01S
OLIVE BRANCH   CLEAR     75  75 100 CALM      30.00S
OXFORD         FAIR      73  72  94 CALM      30.02S
TUNICA           N/A     77  72  83 CALM      30.00S
$$

MSZ003>006-009-014>017-022>024-029>033-037>039-230800-
NORTHEAST MISSISSIPPI

CITY           SKY/WX    TMP DP  RH WIND       PRES   REMARKS
BELMONT        FAIR      73  73  98 CALM      30.02S
COLUMBUS AFB   CLEAR     73  72  96 SE2       30.00F
CORINTH        FAIR      73  72  94 CALM      30.00S
GOLDN TRIANGLE CLEAR     73  66  78 CALM      30.01S
STARKVILLE     FAIR      70  68  94 CALM      30.00F
TUPELO         CLEAR     78  71  79 NW3       30.00F
$$

MSZ040-058-230800-
CENTRAL MISSISSIPPI

CITY           SKY/WX    TMP DP  RH WIND       PRES   REMARKS
JACKSON INTL   CLEAR     74  73  97 CALM      30.01F
JACKSON HAWKNS CLEAR     76  72  87 CALM      30.02F
MERIDIAN KEY   CLEAR     74  71  91 CALM      30.01F
MERIDIAN NAS   CLEAR     75  72  90 CALM      30.01F
RAYMOND        FAIR      73  68  83 CALM      30.02S HAZE
VICKSBURG      CLEAR     72  70  93 CALM      30.01S
$$

MSZ059>079-230800-
SOUTH MISSISSIPPI

CITY           SKY/WX    TMP DP  RH WIND       PRES   REMARKS
BROOKHAVEN     FAIR      73  73 100 CALM      30.04S FOG
COLUMBIA       FAIR      75  73  94 MISG      30.00S FOG
HATTIESBURG    FOG       77  75  93 CALM      30.01S VSB 3/4
MCCOMB         CLEAR     77  74  90 CALM      30.02F
NATCHEZ        CLEAR     75  72  88 CALM      30.02S
PINE BELT      CLEAR     75  72  88 CALM      30.02F
$$

MSZ080>082-230800-
COASTAL MISSISSIPPI

CITY           SKY/WX    TMP DP  RH WIND       PRES   REMARKS
BILOXI         CLEAR     82  77  83 CALM      29.99F HX  90
PASCAGOULA     CLEAR     76  75  97 CALM      29.99F FOG
GULFPORT       CLEAR     80  76  87 CALM      29.99F
$$



USA.gov is the U.S. government's official web portal to all federal, state and local government web resources and services.